Find Starlink 30965

NORAD ID: 58477 Int'l Des: 2023-186 Owner: SPXS Country: US Constellation: starlink operational
LEOCIRCULAR

实时位置

正在加载3D地球...

关于 Starlink 30965

正在加载描述...

即将过境

Passes for default location (London). Set your location on the main map for personalized predictions.

高度历史

Loading altitude history...

两行轨道根数

1 58477U 23186E 26122.34294890 .00000692 00000-0 34680-4 0 9995
2 58477 43.0036 109.1842 0001261 262.3955 97.6754 15.27567059134234
Epoch: May 2, 2026 • Age: 12 hours

当前状态

高度 495.1 km
速度 7.62 km/s
星下点 -42.04°S, 165.5°W
发射日期 Dec 3, 2023
运行时间 2.4 years
类型 internet

技术详情

分类 Payload
质量 730.00 kg
干质量 700.00 kg
总质量 730.00 kg
长度 0.30 m
直径 4.10 m
跨度 29.00 m
形状 Box + pan
制造商 SPXS
平台类型 Starlink V2M
阶段状态 In Orbit
所有者/国家 SPXS/US

Most Searched